User: anonymous   Login
Location: Geroldsau
(48.7259°N, 8.2466°E)
Time: 06:33:17
(UTC+00:00)
Language:

Lacrosse 5 rocket - Orbit

View from above orbital plane
View from above orbital plane
View from above satellite
View from above satellite

Ground track
Ground track

The orbit data is extracted from the following two-line orbital elements,

1 28647U 05016B   21263.01696789  .00000151  00000-0  26906-4 0  9993
2 28647  56.9974 170.8090 0118586 252.2214 106.5856 15.06568335129208
Epoch (UTC): 20 September 2021 00:24:26
Eccentricity: 0.0118586
inclination: 56.9974°
perigee height: 464 km
apogee height: 629 km
right ascension of ascending node: 170.8090°
argument of perigee: 252.2214°
revolutions per day: 15.06568335
mean anomaly at epoch: 106.5856°
orbit number at epoch: 12920

The dashed part of the orbit path shows where the satellite is in the earth's shadow,  

DLR